Weather History for Fort Payne, AL

Change the Weather History Date:

Saturday, May 25, 2013

  Actual Average (KRMG) Record (KRMG)
Temperature  
Mean Temperature 60 °F 71 °F  
Max Temperature 77 °F 83 °F 93 °F (2006)
Min Temperature 44 °F 59 °F 47 °F (2013)
Degree Days  
Heating Degree Days 4    
Cooling Degree Days 0 6  
Month to date cooling degree days 92  
Year to date cooling degree days 125  
Growing Degree Days 10 (Base 50)    
Moisture  
Dew Point 42 °F    
Average Humidity 59    
Maximum Humidity 93    
Minimum Humidity 19    
Precipitation  
Precipitation 0.09 in 0.12 in 0.55 in (1997)
Month to date precipitation 3.46  
Year to date precipitation 22.15  
Sea Level Pressure  
Sea Level Pressure 30.26 in    
Wind  
Wind Speed 2 mph (NNE)    
Max Wind Speed 10 mph    
Max Gust Speed -    
Visibility 10 miles    
Events      
T = Trace of Precipitation, MM = Missing Value Source: NWS Daily Summary

Daily Weather History Graph

Daily Weather History Graph

Search for Another Location

Airport:

Trip Planner

Search our weather history database for the weather conditions in past years. The results will help you decide how hot, cold, wet, or windy it might be!

Date:

Astronomy

May. 25, 2013 Rise Set
Actual Time 5:34 AM CDT 7:45 PM CDT
Civil Twilight 5:05 AM CDT 8:14 PM CDT
Nautical Twilight 4:30 AM CDT 8:49 PM CDT
Astronomical Twilight 3:53 AM CDT 9:27 PM CDT
Moon 8:33 PM CDT (5/25) 5:59 AM CDT (5/25)
Length of Visible Light 15h 08m
Length of Day
14h 11m
Full, 100% of the Moon is Illuminated
May 25
Full
May 31
Last Quarter
Jun 8
New
Jun 16
First Quarter
Jun 23
Full

Hourly Weather History & Observations

Time (CDT) Temp. Windchill Dew Point Humidity Pressure Visibility Wind Dir Wind Speed Gust Speed Precip Events Conditions
12:15 AM 50.0 °F - 46.4 °F 87% 30.28 in 10.0 mi Calm Calm - N/A   Clear
12:35 AM 48.2 °F - 44.6 °F 87% 30.27 in 10.0 mi NE 3.5 mph - N/A   Clear
12:55 AM 46.4 °F - 44.6 °F 93% 30.27 in 10.0 mi Calm Calm - N/A   Clear
1:15 AM 48.2 °F - 44.6 °F 87% 30.26 in 10.0 mi NE 3.5 mph - N/A   Clear
1:35 AM 48.2 °F - 44.6 °F 87% 30.26 in 10.0 mi NNE 4.6 mph - N/A   Clear
1:55 AM 46.4 °F 44.3 °F 44.6 °F 93% 30.25 in 10.0 mi NNE 4.6 mph - N/A   Clear
2:15 AM 46.4 °F - 44.6 °F 93% 30.26 in 10.0 mi Calm Calm - N/A   Clear
2:35 AM 46.4 °F - 44.6 °F 93% 30.27 in 10.0 mi Calm Calm - N/A   Clear
2:55 AM 46.4 °F 45.2 °F 42.8 °F 87% 30.27 in 10.0 mi North 3.5 mph - N/A   Clear
3:15 AM 46.4 °F 45.2 °F 42.8 °F 87% 30.27 in 10.0 mi ENE 3.5 mph - N/A   Clear
3:35 AM 46.4 °F - 42.8 °F 87% 30.28 in 10.0 mi Calm Calm - N/A   Clear
3:55 AM 44.6 °F - 42.8 °F 93% 30.28 in 10.0 mi Calm Calm - N/A   Clear
4:15 AM 44.6 °F 42.2 °F 42.8 °F 93% 30.28 in 10.0 mi NE 4.6 mph - N/A   Clear
4:35 AM 44.6 °F 41.4 °F 42.8 °F 93% 30.28 in 10.0 mi NE 5.8 mph - N/A   Clear
4:55 AM 44.6 °F 42.2 °F 42.8 °F 93% 30.27 in 10.0 mi NE 4.6 mph - N/A   Clear
5:15 AM 44.6 °F 43.1 °F 42.8 °F 93% 30.28 in 10.0 mi NNE 3.5 mph - N/A   Clear
5:35 AM 44.6 °F 42.2 °F 42.8 °F 93% 30.28 in 10.0 mi NNE 4.6 mph - N/A   Clear
5:55 AM 44.6 °F 42.2 °F 42.8 °F 93% 30.28 in 10.0 mi NNE 4.6 mph - N/A   Clear
6:15 AM 48.2 °F - 42.8 °F 82% 30.30 in 10.0 mi Calm Calm - N/A   Clear
6:35 AM 48.2 °F - 44.6 °F 87% 30.30 in 10.0 mi Calm Calm - N/A   Clear
6:55 AM 51.8 °F - 44.6 °F 76% 30.31 in 10.0 mi NNE 3.5 mph - N/A   Clear
7:15 AM 51.8 °F - 44.6 °F 76% 30.31 in 10.0 mi Calm Calm - N/A   Clear
7:35 AM 53.6 °F - 44.6 °F 72% 30.31 in 10.0 mi NE 4.6 mph - N/A   Clear
7:55 AM 55.4 °F - 46.4 °F 72% 30.31 in 10.0 mi ENE 4.6 mph - N/A   Clear
8:15 AM 57.2 °F - 44.6 °F 63% 30.31 in 10.0 mi NE 4.6 mph - N/A   Clear
8:35 AM 59.0 °F - 46.4 °F 63% 30.32 in 10.0 mi ENE 6.9 mph - N/A   Clear
8:55 AM 60.8 °F - 44.6 °F 55% 30.32 in 10.0 mi NE 5.8 mph - N/A   Clear
9:15 AM 62.6 °F - 44.6 °F 52% 30.33 in 10.0 mi NE 6.9 mph - N/A   Clear
9:35 AM 62.6 °F - 42.8 °F 48% 30.32 in 10.0 mi Calm Calm - N/A   Clear
9:55 AM 64.4 °F - 42.8 °F 45% 30.32 in 10.0 mi Calm Calm - N/A   Clear
10:15 AM 66.2 °F - 44.6 °F 46% 30.32 in 10.0 mi Calm Calm - N/A   Clear
10:35 AM 68.0 °F - 42.8 °F 40% 30.32 in 10.0 mi East 3.5 mph - N/A   Clear
10:55 AM 68.0 °F - 41.0 °F 37% 30.32 in 10.0 mi Calm Calm - N/A   Clear
11:15 AM 69.8 °F - 42.8 °F 38% 30.32 in 10.0 mi North 4.6 mph - N/A   Clear
11:35 AM 69.8 °F - 42.8 °F 38% 30.31 in 10.0 mi NNW 3.5 mph - N/A   Clear
11:55 AM 71.6 °F - 42.8 °F 35% 30.30 in 10.0 mi Calm Calm - N/A   Clear
12:15 PM 71.6 °F - 30.2 °F 22% 30.30 in 10.0 mi Calm Calm - N/A   Clear
12:35 PM 73.4 °F - 28.4 °F 19% 30.28 in 10.0 mi South 3.5 mph - N/A   Clear
12:55 PM 73.4 °F - 30.2 °F 20% 30.28 in 10.0 mi South 3.5 mph - N/A   Clear
1:15 PM 73.4 °F - 30.2 °F 20% 30.27 in 10.0 mi West 3.5 mph - N/A   Clear
1:35 PM 75.2 °F - 32.0 °F 21% 30.27 in 10.0 mi WSW 5.8 mph - N/A   Clear
1:55 PM 75.2 °F - 33.8 °F 22% 30.27 in 10.0 mi West 4.6 mph - N/A   Clear
2:15 PM 75.2 °F - 32.0 °F 21% 30.27 in 10.0 mi Calm Calm - N/A   Clear
2:35 PM 75.2 °F - 35.6 °F 24% 30.26 in 10.0 mi Calm Calm - N/A   Clear
2:55 PM 77.0 °F - 37.4 °F 24% 30.26 in 10.0 mi West 10.4 mph - N/A   Clear
3:15 PM 77.0 °F - 35.6 °F 22% 30.25 in 10.0 mi NW 3.5 mph - N/A   Clear
3:35 PM 77.0 °F - 33.8 °F 21% 30.25 in 10.0 mi SW 5.8 mph - N/A   Clear
3:55 PM 77.0 °F - 35.6 °F 22% 30.25 in 10.0 mi NNE 4.6 mph - N/A   Clear
4:15 PM 77.0 °F - 35.6 °F 22% 30.24 in 10.0 mi North 4.6 mph - N/A   Clear
4:35 PM 77.0 °F - 37.4 °F 24% 30.23 in 10.0 mi NNW 4.6 mph - N/A   Clear
4:55 PM 77.0 °F - 37.4 °F 24% 30.23 in 10.0 mi NW 5.8 mph - N/A   Clear
5:15 PM 77.0 °F - 37.4 °F 24% 30.22 in 10.0 mi NNW 4.6 mph - N/A   Clear
5:35 PM 77.0 °F - 33.8 °F 21% 30.22 in 10.0 mi North 5.8 mph - N/A   Clear
5:55 PM 75.2 °F - 33.8 °F 22% 30.23 in 10.0 mi North 5.8 mph - N/A   Clear
6:15 PM 73.4 °F - 33.8 °F 23% 30.22 in 10.0 mi Calm Calm - N/A   Clear
6:35 PM 71.6 °F - 35.6 °F 27% 30.22 in 10.0 mi Calm Calm - N/A   Clear
6:55 PM 69.8 °F - 46.4 °F 43% 30.22 in 10.0 mi Calm Calm - N/A   Clear
7:15 PM 68.0 °F - 46.4 °F 46% 30.21 in 10.0 mi Calm Calm - N/A   Clear
7:35 PM 64.4 °F - 46.4 °F 52% 30.21 in 10.0 mi Calm Calm - N/A   Clear
7:55 PM 62.6 °F - 46.4 °F 55% 30.21 in 10.0 mi Calm Calm - N/A   Clear
8:15 PM 60.8 °F - 46.4 °F 59% 30.21 in 10.0 mi Calm Calm - 0.09 in   Clear
8:35 PM 59.0 °F - 50.0 °F 72% 30.21 in 10.0 mi Calm Calm - 0.09 in   Clear
8:55 PM 59.0 °F - 48.2 °F 67% 30.21 in 10.0 mi Calm Calm - 0.09 in   Clear
9:15 PM 55.4 °F - 50.0 °F 82% 30.21 in 10.0 mi Calm Calm - N/A   Clear
9:35 PM 55.4 °F - 50.0 °F 82% 30.21 in 10.0 mi Calm Calm - N/A   Clear
9:55 PM 53.6 °F - 48.2 °F 82% 30.21 in 10.0 mi Calm Calm - N/A   Clear
10:15 PM 53.6 °F - 48.2 °F 82% 30.21 in 10.0 mi Calm Calm - N/A   Clear
10:35 PM 53.6 °F - 48.2 °F 82% 30.21 in 10.0 mi Calm Calm - N/A   Clear
10:55 PM 53.6 °F - 48.2 °F 82% 30.21 in 10.0 mi North 4.6 mph - N/A   Clear
11:15 PM 53.6 °F - 46.4 °F 77% 30.21 in 10.0 mi Calm Calm - N/A   Clear
11:35 PM 51.8 °F - 46.4 °F 82% 30.21 in 10.0 mi NNE 3.5 mph - N/A   Clear
11:55 PM 51.8 °F - 46.4 °F 82% 30.21 in 10.0 mi NNE 3.5 mph - N/A   Clear